Location: Street
(51.1247°N, 2.7429°W)
Time: 12:45:25
(UTC+01:00)

STRAND 1 - Pass Details

Date: 23 April 2024
Orbit: 766 x 777 km, 98.4° (Epoch: 25 May)

Event Time Altitude Azimuth Distance (km) Brightness Sun altitude
Rises 05:05:04 0° 120° (ESE) 3,230 ? -8.3°
Reaches altitude 10° 05:07:51 10° 104° (ESE) 2,307 ? -8.0°
Maximum altitude 05:11:35 21° 57° (ENE) 1,671 ? -7.5°
Drops below altitude 10° 05:15:19 10° 9° (N) 2,317 ? -7.0°
Sets 05:18:07 0° 354° (N) 3,249 ? -6.6°
